Lapse_Rate
5.6 6.5 6.5 6.5 6.5 6.5 6.5 6.5 6.5 6.5 6.5 6.5 6.5 6.5 6.5 5.7 5.8 6.4 6.3 6.4 6.5 6.8 5.2 4.8 4.8 5.7 6.0 5.5 5.3 5.4 5.3 5.3 6.1 6.2 5.7 5.4 5.1 5.8 5.2 5.4 6.7 6.8 7.1 6.6
6.5 6.5 6.5 6.5 6.5 6.5 6.5 6.5 6.5 6.5 6.5 6.5 6.5 6.5 6.5 6.5 6.4 5.7 6.1 5.8 6.3 7.0 6.6 6.2 5.9 5.1 5.0 5.7 6.2 5.8 5.8 6.0 6.3 6.6 6.7 6.0 5.6 5.0 5.3 5.4 5.6 6.4 6.0 5.7
6.5 6.5 6.5 6.5 6.5 6.5 6.5 6.5 6.5 6.5 6.5 6.5 6.5 6.5 6.5 6.5 6.5 6.3 5.3 5.2 5.4 6.0 6.2 6.8 5.9 4.9 5.0 5.9 6.0 6.4 6.6 7.0 6.6 6.7 6.6 6.1 4.9 4.8 4.8 3.8 4.5 5.2 5.5 6.1
6.5 6.5 6.5 6.5 6.5 6.5 6.5 6.5 6.5 6.5 6.5 6.5 6.5 6.5 6.5 6.5 6.5 6.5 6.0 5.0 5.3 5.4 5.9 6.2 5.9 4.7 4.5 4.3 4.7 5.4 6.1 6.5 7.0 7.0 6.5 6.0 6.4 6.8 6.6 4.1 4.6 4.3 4.8 4.1
6.5 6.5 6.5 6.5 6.5 6.5 6.5 6.5 6.5 6.5 6.5 6.5 6.5 6.5 6.5 6.5 6.5 6.5 6.3 6.1 4.7 5.7 5.1 6.3 6.0 5.3 4.9 4.9 5.0 5.5 6.1 6.3 6.6 6.5 6.3 6.0 6.1 6.0 5.6 4.4 4.9 5.0 4.3 5.2
6.5 6.0 6.5 6.5 6.5 6.5 6.5 6.5 6.5 6.5 6.5 6.5 6.5 6.5 6.5 6.5 6.5 6.5 6.2 6.5 5.5 5.4 5.8 5.4 5.5 6.0 5.7 5.4 5.4 5.7 6.4 6.5 6.5 6.2 5.9 6.6 5.8 5.2 5.2 4.6 4.6 4.5 4.5 4.0
6.5 6.5 6.5 6.4 6.5 6.5 6.5 6.5 6.5 6.5 6.5 6.5 6.5 6.5 6.5 6.5 6.5 6.5 6.5 5.9 5.8 5.9 5.9 5.9 6.4 6.9 6.1 5.8 5.4 5.9 6.5 7.1 7.0 6.7 6.4 6.2 5.4 4.3 5.1 4.4 3.3 3.4 3.4 2.5
6.5 6.5 6.5 6.5 6.5 6.5 6.5 6.5 6.5 6.5 6.5 6.5 6.5 6.5 6.5 6.5 5.5 4.6 6.5 5.9 4.6 5.3 6.4 5.8 5.2 5.6 6.5 5.8 5.7 6.0 6.5 6.8 7.6 7.1 6.7 6.5 5.2 5.3 5.8 3.6 2.5 2.9 3.6 3.3
6.5 6.5 6.5 6.5 6.5 6.5 6.5 6.5 6.5 6.5 6.5 6.5 6.5 6.5 6.5 6.5 6.5 6.2 5.1 4.1 2.7 2.4 3.8 5.7 5.8 5.3 5.7 5.6 5.7 5.5 5.9 6.5 7.2 6.6 6.6 6.3 6.0 5.0 3.5 3.5 3.2 3.3 2.9 1.0
6.5 6.5 6.5 6.5 6.3 6.5 6.5 6.5 6.5 6.5 6.5 6.5 6.5 6.5 6.5 6.5 6.5 6.5 6.5 5.6 3.6 3.1 3.7 5.1 5.4 5.7 5.2 4.9 4.9 4.8 5.6 5.2 5.3 6.0 6.0 5.8 4.9 4.8 3.4 3.5 2.4 2.6 1.2 1.3
6.5 6.5 6.5 6.5 6.5 6.5 6.5 6.5 6.5 6.5 6.5 6.5 6.5 6.5 6.5 6.5 6.5 6.5 6.5 4.3 3.5 3.5 3.5 3.7 2.9 3.6 5.6 5.7 5.2 4.9 5.7 5.3 5.3 5.8 5.9 5.6 3.8 3.9 4.4 3.0 2.5 2.3 2.2 1.5
6.5 6.5 6.5 6.5 6.5 6.5 6.5 6.5 6.5 6.5 6.5 6.5 6.5 6.5 6.5 6.5 6.5 6.3 5.8 4.3 2.9 3.1 3.5 3.5 3.7 3.9 3.6 4.3 6.5 6.6 6.6 4.2 1.8 1.5 5.5 4.7 2.4 2.0 2.5 2.1 2.0 2.1 1.7 2.6
6.5 6.5 6.5 6.5 6.5 6.5 6.5 6.5 6.5 6.5 6.5 6.5 6.5 6.5 6.5 6.5 6.5 5.2 5.7 4.7 3.8 3.4 3.3 3.0 3.3 4.3 4.4 4.1 3.2 4.2 5.0 4.2 3.0 2.8 5.6 2.9 2.5 3.7 2.9 2.4 0.5 1.3 1.8 2.7
6.1 6.5 6.5 6.5 6.5 6.5 6.5 6.5 6.5 6.5 6.5 6.5 6.5 6.5 6.5 6.5 6.5 6.4 4.9 4.8 4.0 3.4 3.6 3.0 2.7 2.9 3.6 3.9 3.2 3.0 3.3 3.1 3.1 3.0 1.6 0.7 0.8 0.8 1.1 1.1 1.7 1.8 1.6 1.8
6.5 6.5 6.5 6.5 6.5 6.5 6.5 6.5 6.5 6.5 6.5 6.5 6.5 6.5 6.5 6.5 6.5 6.2 3.9 5.5 5.5 5.0 4.2 3.4 2.7 2.7 2.9 2.8 2.7 2.3 2.0 2.0 2.6 1.7 0.8 0.6 0.8 1.4 1.8 2.2 1.8 1.2 1.7 1.6
6.5 6.5 6.5 6.5 6.5 6.5 6.5 6.5 6.5 6.5 6.5 6.5 6.5 6.5 6.5 6.2 5.3 4.2 4.5 4.3 4.7 4.9 4.1 4.2 3.5 3.7 3.8 3.4 2.5 2.6 2.5 2.2 1.9 1.2 1.3 1.7 2.4 2.4 2.7 2.9 2.4 2.8 2.6 2.6
6.5 6.5 6.5 6.5 6.5 6.5 6.5 6.5 6.5 6.5 6.5 6.5 6.5 6.5 6.5 6.5 6.5 6.3 4.9 4.4 4.4 3.9 3.6 3.7 3.8 3.7 3.4 2.9 2.4 2.1 2.4 2.6 2.7 2.9 3.0 2.2 2.1 1.7 1.4 2.3 3.5 4.4 3.7 2.0
6.5 6.5 6.5 6.5 6.5 6.5 6.5 6.5 6.5 6.5 6.5 6.5 6.5 6.5 6.5 6.2 4.5 5.1 5.2 4.2 4.3 2.8 2.9 2.2 1.9 1.9 2.4 2.4 2.6 2.3 3.1 2.9 3.1 3.2 3.1 2.9 2.5 2.0 1.5 1.6 1.6 1.3 1.1 0.9
6.5 6.5 6.5 6.5 6.5 6.5 6.5 6.5 6.5 6.5 6.5 6.5 6.5 6.5 6.5 4.7 5.4 5.9 3.2 2.5 1.6 1.7 1.1 0.9 1.2 2.1 2.3 2.7 2.9 3.5 3.1 3.3 3.6 3.1 2.9 2.9 2.2 2.0 2.0 2.0 1.8 1.9 2.1 2.1
6.5 6.5 6.5 6.5 6.5 6.5 6.5 6.5 6.0 6.5 6.5 6.5 6.5 6.5 6.5 5.4 6.5 6.5 3.8 1.8 1.1 1.2 1.8 2.0 2.2 2.6 3.1 2.8 3.2 3.5 3.6 3.7 3.8 4.0 3.9 3.7 3.5 3.3 2.5 2.1 2.1 2.8 3.3 4.2
6.5 6.5 6.5 6.5 6.5 6.5 6.5 6.5 6.3 6.5 6.5 6.2 5.5 5.4 5.8 6.5 5.1 2.2 1.6 1.5 1.5 2.1 2.3 2.3 3.0 2.9 2.8 3.5 3.9 3.4 3.5 3.9 4.5 4.8 4.1 3.6 3.1 2.7 2.9 3.3 3.6 3.8 3.8 4.2
6.5 6.5 6.5 6.5 6.5 6.5 6.5 6.3 6.5 6.4 3.7 4.4 4.2 6.0 4.5 2.7 1.8 2.4 2.0 2.2 2.8 2.6 3.3 3.4 3.5 3.6 3.5 3.7 4.1 3.6 4.0 4.5 4.3 3.9 3.8 4.1 4.3 5.0 4.3 3.6 4.4 4.7 4.2 3.6
6.5 6.5 6.5 6.5 6.5 6.4 6.1 6.6 5.3 6.7 6.2 5.1 6.2 5.2 3.7 2.3 2.7 1.8 2.2 2.6 3.1 3.4 4.0 4.1 3.8 3.7 3.8 4.2 4.5 4.1 3.9 4.6 4.5 4.3 4.4 4.6 5.0 4.9 4.8 4.3 4.2 4.2 3.5 2.1
6.5 6.5 6.5 6.5 6.5 6.5 6.2 5.0 5.7 5.1 6.3 6.7 5.2 4.2 2.6 1.8 1.2 1.7 2.4 3.0 3.8 4.0 4.2 4.4 4.4 4.4 4.3 4.8 4.6 3.7 4.7 4.9 4.5 4.2 4.0 4.1 4.5 4.8 4.2 4.1 3.1 2.0 1.1 1.3
6.5 6.5 6.5 6.5 6.5 6.5 6.6 6.2 6.2 5.1 6.1 5.6 5.1 4.5 4.2 1.6 2.1 1.6 2.6 3.2 3.9 4.5 4.1 4.6 4.6 4.2 4.0 4.8 4.8 5.0 4.9 5.0 4.7 4.3 4.7 4.1 3.1 2.2 1.2 0.9 0.8 0.3 0.2 1.0
6.3 6.5 6.5 6.5 6.2 6.1 6.0 5.2 5.9 5.0 6.0 6.0 5.6 4.1 4.3 3.4 2.0 2.6 2.7 3.3 4.3 3.8 4.0 4.0 3.8 3.7 4.1 4.6 4.9 5.2 5.5 5.2 4.5 4.4 3.6 2.1 2.0 2.3 2.3 1.5 1.0 1.5 2.1 2.3
Wind_Speed
5 4 8 10 13 17 13 12 6 4 6 7 12 8 12 10 5 18 14 15 15 16 17 15 16 16 14 13 14 16 15 14 11 10 10 9 9 9 4 9 15 19 18 17
7 15 14 15 18 17 16 10 7 6 1 4 11 11 10 8 6 11 15 16 17 15 18 18 16 16 15 17 16 17 16 17 12 11 10 7 5 3 4 8 13 18 17 10
13 12 18 19 18 16 15 7 5 3 5 10 4 3 5 9 10 8 11 13 16 22 19 19 19 18 18 18 18 19 18 16 15 14 9 6 3 4 4 4 5 11 18 18
12 19 20 17 18 12 9 6 9 5 1 4 5 3 10 14 14 14 12 14 13 20 20 19 21 19 20 19 17 18 18 16 15 17 14 14 12 9 8 5 5 7 17 16
14 7 12 17 12 6 11 7 1 2 3 2 6 0 4 15 12 15 14 18 14 21 22 22 23 23 21 20 19 18 18 18 18 17 17 13 14 9 9 6 11 12 9 17
15 14 15 13 9 8 9 4 3 3 1 4 6 2 6 12 19 17 19 19 18 18 22 23 23 23 22 20 19 19 21 21 20 19 20 18 15 11 9 7 9 8 8 8
16 22 14 12 7 7 6 2 1 3 2 6 4 3 7 8 9 8 22 20 21 20 22 22 23 21 22 23 24 20 22 22 22 21 21 21 15 14 14 11 8 10 5 3
13 14 19 12 14 8 10 7 5 4 2 4 3 3 6 8 8 9 17 22 16 16 18 23 25 24 23 25 25 24 23 22 22 22 22 20 17 11 11 8 5 4 7 7
11 18 6 16 9 12 10 6 8 4 3 2 3 6 8 10 12 8 11 9 10 11 12 17 23 23 24 24 26 25 25 23 21 18 16 18 18 15 10 12 9 10 10 6
6 7 18 15 10 10 9 3 2 0 4 4 4 4 4 9 10 6 7 13 14 15 15 13 15 23 22 24 24 24 24 25 25 22 16 14 17 15 12 10 6 5 6 12
19 15 12 11 13 15 4 7 3 4 5 4 3 5 7 10 5 6 9 7 8 9 11 10 9 8 17 22 22 22 19 10 11 8 14 14 14 18 15 10 7 6 5 10
18 4 13 22 11 11 9 13 10 5 5 4 3 10 5 7 5 4 6 8 8 8 8 7 8 5 5 9 18 14 20 24 22 18 13 11 3 10 4 3 11 13 11 9
11 15 14 12 12 9 19 13 10 5 5 7 5 5 7 5 8 7 6 6 7 8 8 8 6 2 1 3 5 14 19 21 14 15 18 8 11 14 10 9 9 9 8 8
14 14 15 20 5 5 6 7 8 9 5 5 7 5 6 7 2 4 4 0 3 7 9 8 8 7 4 3 7 8 9 10 12 13 9 12 10 12 12 11 10 8 7 6
6 10 22 18 14 12 14 21 19 17 13 10 7 7 9 10 6 15 8 5 1 6 6 8 8 7 7 7 7 9 6 8 13 12 11 11 12 11 11 10 9 9 8 7
11 12 6 7 19 20 15 16 21 16 6 14 11 12 14 17 10 9 9 8 8 10 11 8 9 9 9 8 8 8 7 9 12 13 12 11 11 11 9 10 10 8 8 8
11 10 7 15 3 6 12 18 14 9 15 11 11 13 15 13 11 17 12 17 12 10 9 9 12 11 9 11 11 9 8 10 11 11 11 12 12 12 10 9 10 9 9 7
4 16 4 5 4 8 16 5 13 10 13 12 6 4 5 9 10 13 18 19 11 10 9 10 9 7 8 10 11 10 11 10 10 10 11 11 12 12 10 10 9 8 6 7
6 4 5 3 11 5 12 7 12 10 12 7 6 5 6 7 2 2 6 7 10 9 8 8 8 10 9 10 9 12 10 10 10 10 10 10 11 12 11 10 9 7 7 6
10 2 2 5 8 16 3 15 8 1 7 4 4 8 7 6 3 5 4 8 9 10 12 13 12 11 11 7 10 11 9 10 9 9 9 10 11 11 10 8 8 4 5 6
3 3 3 11 4 7 6 9 1 5 5 5 6 6 2 3 7 5 8 6 10 12 13 10 11 10 8 9 10 9 8 8 8 10 10 12 12 12 10 7 6 7 6 7
8 8 5 4 4 6 14 6 12 6 6 9 7 3 6 8 7 11 12 13 13 14 14 12 11 10 8 9 11 9 8 7 10 13 12 11 10 8 7 8 5 7 7 7
4 6 7 8 5 8 13 7 11 15 11 11 3 8 8 9 8 11 11 12 13 14 12 10 11 10 8 10 11 11 8 11 11 11 10 9 9 8 7 5 5 6 7 5
1 4 3 5 5 9 11 8 16 15 12 17 7 8 10 9 12 9 11 10 11 11 10 10 12 11 9 10 11 12 11 11 11 10 7 6 7 8 8 7 6 6 5 4
3 7 4 2 3 13 13 5 11 13 16 21 18 4 6 9 11 15 10 10 10 11 7 11 10 9 8 11 11 11 11 12 10 9 8 7 8 10 9 7 5 6 4 4
5 5 4 5 10 9 5 7 12 11 11 13 9 9 5 7 8 7 8 9 11 10 11 11 10 12 10 11 9 8 9 11 11 10 6 5 5 6 7 7 7 12 11 13
Wind_Direction
220 197 232 239 231 242 260 280 278 219 196 166 188 188 215 234 177 199 187 179 174 161 164 160 163 168 162 165 162 171 172 174 178 182 181 186 205 216 206 199 208 192 201 196
230 232 229 241 253 257 262 270 269 317 201 191 167 209 216 247 254 188 178 183 171 156 154 159 162 163 172 173 176 177 183 191 186 190 196 202 203 200 199 210 201 204 203 192
212 232 220 236 250 257 271 258 286 252 190 267 220 14 231 253 261 270 179 171 154 163 165 167 166 172 177 180 182 184 189 187 190 188 192 207 218 214 201 206 206 205 201 211
233 235 245 248 241 243 267 259 247 251 243 224 171 258 217 224 220 222 176 176 166 171 172 173 171 178 181 186 185 190 193 193 192 191 196 205 212 210 211 188 195 200 206 201
226 239 240 244 251 227 257 249 323 301 315 316 308 295 233 209 207 205 191 185 188 177 177 178 182 180 187 185 190 195 195 195 197 201 204 209 210 210 198 186 192 200 199 201
253 231 244 240 242 227 255 204 240 294 331 335 267 215 295 183 197 208 199 178 192 182 183 184 186 184 184 187 192 196 198 200 201 202 208 213 208 204 202 194 192 196 195 190
244 254 251 247 240 226 258 202 246 338 329 229 335 347 229 236 174 178 175 176 193 188 182 185 186 188 191 187 192 196 201 204 202 205 209 214 210 195 197 197 180 178 165 197
226 248 237 232 212 201 242 184 156 220 214 267 12 249 270 331 191 184 172 183 190 177 191 186 188 190 193 196 193 194 201 205 204 206 212 214 208 206 206 180 161 169 179 206
201 237 245 232 233 193 239 210 187 175 39 64 250 281 301 276 231 205 202 181 212 203 202 199 190 190 197 196 199 196 195 202 207 204 209 212 210 209 190 170 161 185 184 164
237 241 238 253 218 237 186 189 237 348 156 225 219 242 234 266 232 210 152 186 217 224 215 203 186 193 199 201 201 200 200 201 206 206 203 203 204 203 180 173 181 149 144 156
216 239 275 241 226 211 210 219 195 162 150 197 207 249 192 218 244 196 182 159 149 150 161 181 193 198 209 204 203 202 198 152 214 234 224 217 202 196 187 167 150 115 150 168
210 189 232 253 277 221 198 203 200 146 200 191 180 253 199 184 263 252 229 179 168 150 156 148 152 175 169 186 213 193 187 186 196 209 226 211 129 92 3 98 128 162 171 168
219 222 240 273 254 257 215 215 200 190 135 201 202 247 224 183 287 256 207 161 168 158 160 154 138 151 316 103 119 182 178 196 200 213 227 153 165 179 178 145 155 154 152 158
313 208 220 228 248 182 254 245 243 215 168 207 195 234 280 264 255 284 85 95 233 189 167 164 160 167 176 84 89 92 147 176 165 187 134 137 133 123 123 124 124 145 141 140
308 258 230 226 216 239 208 224 248 245 220 208 222 217 243 236 206 245 176 183 208 214 212 176 168 167 145 113 94 94 91 95 124 121 114 117 117 116 123 130 130 125 120 119
324 264 224 240 212 216 232 224 223 231 237 223 218 229 232 250 240 174 196 214 241 196 186 163 151 141 142 125 111 102 90 91 107 113 116 119 120 119 119 120 118 118 117 119
308 331 211 243 242 225 260 237 253 229 249 246 212 219 220 238 205 193 189 220 209 182 166 147 151 150 142 135 127 117 104 97 95 101 102 105 110 112 110 111 119 119 114 117
278 321 275 184 132 216 256 198 249 241 245 256 236 217 220 237 225 195 202 207 195 152 142 137 131 121 124 125 121 114 111 109 107 103 105 109 112 111 104 101 102 103 109 120
131 310 306 168 210 249 279 240 204 209 248 225 231 250 248 266 238 10 150 149 160 149 138 129 123 123 118 120 118 118 113 112 114 118 120 120 116 115 114 115 118 116 118 119
155 228 33 312 206 217 147 245 255 49 261 253 247 237 242 242 180 229 178 126 122 125 135 132 125 121 121 118 116 117 121 121 123 119 113 114 116 117 116 121 124 117 118 116
148 104 354 278 261 289 221 181 209 220 231 255 237 225 238 219 204 165 122 91 130 133 131 120 122 128 127 118 113 111 110 112 119 119 113 109 112 117 117 111 108 108 107 104
166 172 169 278 195 255 20 313 211 220 262 247 246 307 126 147 124 144 140 139 140 136 133 128 127 128 121 115 115 108 110 106 100 106 109 111 113 119 116 123 125 122 123 117
171 189 172 158 268 283 324 310 305 354 326 288 160 276 145 149 161 157 153 151 149 144 137 129 130 123 117 116 124 119 120 114 111 111 115 120 122 128 138 133 119 105 113 117
182 150 147 110 248 277 305 355 346 344 340 328 284 234 156 161 161 154 150 144 141 141 136 131 130 129 124 124 123 128 130 124 120 123 121 119 113 100 87 86 84 94 91 93
200 147 171 289 333 302 287 9 323 314 324 337 333 293 91 154 175 160 157 146 139 140 117 127 127 122 114 121 122 129 127 125 121 111 113 103 97 95 85 69 78 90 56 99
188 162 167 216 218 191 200 168 221 273 314 310 316 314 355 163 165 146 144 135 134 126 121 115 108 103 102 100 100 103 112 115 111 105 90 85 99 102 100 98 81 72 91 93